DW4207 Weather Reports


Display with metric or nautical units.
time (UTC)temp
F
wind
direction
speed
MPH
gust
MPH
rain 1hr
in
rain 24hr
in
rain mn
in
humidity
%
barometer
mb
20260901024025 79 179 0.0 2.0 0.00 0.00 0.00 81 1017.2
20260901023004 78 0 0.0 0.0 0.00 0.00 0.00 82 1017.3
20260901022004 78 211 0.0 1.0 0.00 0.00 0.00 80 1017.3
20260901021004 79 211 0.0 2.0 0.00 0.00 0.00 79 1017.3
20260901020004 80 234 0.0 2.0 0.00 0.00 0.00 78 1017.1
20260901015025 81 201 0.0 2.0 0.00 0.00 0.00 77 1017.0
20260901014004 79 0 0.0 0.0 0.00 0.00 0.00 80 1016.8
20260901013004 80 0 0.0 0.0 0.00 0.00 0.00 81 1016.7
20260901012025 80 0 0.0 0.0 0.00 0.00 0.00 77 1016.7
20260901011004 79 0 0.0 1.0 0.00 0.00 0.00 81 1016.5
20260901010004 79 0 0.0 0.0 0.00 0.00 0.00 82 1016.3
20260901005004 79 0 0.0 0.0 0.00 0.00 0.00 80 1016.2
20260901004004 80 0 0.0 0.0 0.00 0.00 0.00 76 1016.3
20260901003004 81 0 0.0 0.0 0.00 0.00 0.00 76 1016.3
20260901002025 83 0 0.0 0.0 0.00 0.00 0.00 72 1016.2
20260901001004 84 186 0.0 2.0 0.00 0.00 0.00 68 1016.1
20260901000004 85 198 1.0 3.0 0.00 0.00 0.00 66 1016.1
20260831235004 85 204 1.0 4.0 0.00 0.00 0.00 66 1015.9
20260831234004 86 205 1.0 5.0 0.00 0.00 0.00 64 1016.1
20260831233004 87 178 1.0 5.0 0.00 0.00 0.00 63 1015.9
20260831232004 87 187 3.0 6.0 0.00 0.00 0.00 62 1016.0
20260831231004 87 202 3.0 8.0 0.00 0.00 0.00 62 1016.0
20260831230025 88 202 3.0 11.0 0.00 0.00 0.00 61 1016.1
20260831225004 88 211 4.0 10.0 0.00 0.00 0.00 61 1016.1
20260831224004 89 208 3.0 10.0 0.00 0.00 0.00 59 1016.3
20260831223004 89 207 5.0 10.0 0.00 0.00 0.00 58 1016.3
20260831222025 89 218 4.0 10.0 0.00 0.00 0.00 58 1016.3
20260831221004 89 206 5.0 12.0 0.00 0.00 0.00 58 1016.3
20260831220004 90 205 5.0 12.0 0.00 0.00 0.00 57 1016.3
20260831215025 90 200 6.0 13.0 0.00 0.00 0.00 57 1016.3
20260831214025 90 205 5.0 11.0 0.00 0.00 0.00 56 1016.2
20260831213004 90 188 4.0 10.0 0.00 0.00 0.00 60 1016.3
20260831212025 90 168 6.0 13.0 0.00 0.00 0.00 56 1016.3
20260831211004 90 172 6.0 16.0 0.00 0.00 0.00 57 1016.4
20260831210004 90 185 5.0 12.0 0.00 0.00 0.00 55 1016.5
20260831205004 90 168 5.0 10.0 0.00 0.00 0.00 57 1016.5
20260831204004 90 182 4.0 11.0 0.00 0.00 0.00 57 1016.6
20260831203004 90 203 6.0 15.0 0.00 0.00 0.00 57 1016.9
20260831202004 90 207 6.0 13.0 0.00 0.00 0.00 56 1016.9
20260831201004 90 208 5.0 11.0 0.00 0.00 0.00 58 1017.1
20260831200004 90 187 4.0 11.0 0.00 0.00 0.00 59 1017.2
20260831195025 90 197 5.0 11.0 0.00 0.00 0.00 54 1017.4
20260831194004 90 217 5.0 12.0 0.00 0.00 0.00 55 1017.7
20260831193004 90 215 4.0 10.0 0.00 0.00 0.00 57 1017.8
20260831192004 90 238 5.0 12.0 0.00 0.00 0.00 59 1017.9
20260831191004 90 229 5.0 11.0 0.00 0.00 0.00 58 1018.0
20260831190004 90 220 4.0 11.0 0.00 0.00 0.00 59 1018.1
20260831185025 90 230 4.0 11.0 0.00 0.00 0.00 61 1018.2
20260831184025 90 229 4.0 12.0 0.00 0.00 0.00 57 1018.2
20260831183004 90 227 5.0 12.0 0.00 0.00 0.00 60 1018.4
20260831182004 89 222 5.0 14.0 0.00 0.00 0.00 60 1018.5
20260831181004 89 243 5.0 13.0 0.00 0.00 0.00 59 1018.5
20260831180004 90 221 5.0 13.0 0.00 0.00 0.00 62 1018.5
20260831175004 89 226 6.0 12.0 0.00 0.00 0.00 58 1018.6
20260831174004 89 219 6.0 14.0 0.00 0.00 0.00 59 1018.6
20260831173025 89 236 5.0 15.0 0.00 0.00 0.00 59 1018.6
20260831172004 88 236 6.0 15.0 0.00 0.00 0.00 62 1018.8
20260831171004 88 221 6.0 11.0 0.00 0.00 0.00 63 1018.9
20260831170004 88 211 4.0 11.0 0.00 0.00 0.00 68 1019.0
20260831165025 87 222 4.0 12.0 0.00 0.00 0.00 66 1019.0
20260831164025 87 224 7.0 12.0 0.00 0.00 0.00 65 1019.1
20260831163004 87 206 5.0 13.0 0.00 0.00 0.00 65 1019.1
20260831162004 87 213 5.0 11.0 0.00 0.00 0.00 67 1019.0
20260831161004 86 230 3.0 8.0 0.00 0.00 0.00 67 1019.1
20260831160004 86 213 4.0 9.0 0.00 0.00 0.00 69 1019.2
20260831155004 85 228 5.0 10.0 0.00 0.00 0.00 68 1019.2
20260831154004 85 201 3.0 9.0 0.00 0.00 0.00 74 1019.1
20260831153004 84 216 3.0 7.0 0.00 0.00 0.00 71 1019.1
20260831152004 83 202 4.0 9.0 0.00 0.00 0.00 72 1019.3
20260831151004 84 204 4.0 8.0 0.00 0.00 0.00 72 1019.1
20260831150004 84 212 3.0 8.0 0.00 0.00 0.00 73 1019.0
20260831145025 83 219 4.0 10.0 0.00 0.00 0.00 73 1019.1
20260831144004 83 200 3.0 7.0 0.00 0.00 0.00 74 1019.0
20260831143004 82 216 3.0 8.0 0.00 0.00 0.00 75 1018.9
20260831142004 80 203 3.0 7.0 0.00 0.00 0.00 76 1018.7
20260831141004 80 205 4.0 11.0 0.00 0.00 0.00 77 1018.7
20260831140004 80 187 3.0 9.0 0.00 0.00 0.00 77 1018.8
20260831135004 80 203 3.0 8.0 0.00 0.00 0.00 77 1018.9
20260831134004 80 197 3.0 8.0 0.00 0.00 0.00 77 1018.9
20260831133004 79 189 3.0 8.0 0.00 0.00 0.00 78 1018.9
20260831132004 78 179 3.0 9.0 0.00 0.00 0.00 79 1018.7
20260831131025 77 158 3.0 9.0 0.00 0.00 0.00 80 1018.6
20260831130025 76 180 1.0 5.0 0.00 0.00 0.00 80 1018.6
20260831125004 75 172 1.0 4.0 0.00 0.00 0.00 81 1018.6
20260831124004 75 167 2.0 5.0 0.00 0.00 0.00 81 1018.3
20260831123004 74 167 2.0 5.0 0.00 0.00 0.00 81 1018.2
20260831122004 74 161 2.0 5.0 0.00 0.00 0.00 81 1018.2
20260831121004 74 161 2.0 5.0 0.00 0.00 0.00 82 1018.1
20260831120004 73 167 1.0 3.0 0.00 0.00 0.00 84 1018.2
20260831115004 72 160 1.0 3.0 0.00 0.00 0.00 84 1018.2
20260831114004 72 165 1.0 3.0 0.00 0.00 0.00 85 1018.2
20260831113004 72 161 0.0 3.0 0.00 0.00 0.00 85 1018.2
20260831112025 71 138 0.0 2.0 0.00 0.00 0.00 86 1018.1
20260831111025 71 177 0.0 2.0 0.00 0.00 0.00 87 1018.1
20260831110004 70 171 0.0 2.0 0.00 0.00 0.00 89 1018.1
20260831105004 70 0 0.0 0.0 0.00 0.00 0.00 89 1018.2
20260831104004 70 0 0.0 0.0 0.00 0.00 0.00 89 1018.2
20260831103025 70 0 0.0 0.0 0.00 0.00 0.00 88 1018.1
20260831102004 70 0 0.0 0.0 0.00 0.00 0.00 87 1018.0
20260831101004 71 0 0.0 0.0 0.00 0.00 0.00 87 1017.9
20260831100004 71 0 0.0 0.0 0.00 0.00 0.00 87 1017.8
20260831095025 71 0 0.0 0.0 0.00 0.00 0.00 88 1017.7
20260831094004 71 0 0.0 0.0 0.00 0.00 0.00 87 1017.8
20260831093004 71 0 0.0 0.0 0.00 0.00 0.00 86 1017.8
20260831092004 72 0 0.0 0.0 0.00 0.00 0.00 86 1017.8
20260831091004 72 0 0.0 0.0 0.00 0.00 0.00 86 1017.8
20260831090025 72 0 0.0 0.0 0.00 0.00 0.00 87 1017.8
20260831085025 72 0 0.0 0.0 0.00 0.00 0.00 85 1017.9
20260831084025 73 0 0.0 0.0 0.00 0.00 0.00 84 1017.8
20260831083004 73 0 0.0 0.0 0.00 0.00 0.00 84 1017.7
20260831082025 72 0 0.0 0.0 0.00 0.00 0.00 86 1017.5
20260831081004 72 0 0.0 0.0 0.00 0.00 0.00 87 1017.6
20260831080004 72 0 0.0 0.0 0.00 0.00 0.00 86 1017.5
20260831075004 72 0 0.0 0.0 0.00 0.00 0.00 85 1017.5
20260831074004 72 0 0.0 0.0 0.00 0.00 0.00 85 1017.5
20260831073004 72 0 0.0 0.0 0.00 0.00 0.00 85 1017.5
20260831072004 73 0 0.0 0.0 0.00 0.00 0.00 85 1017.5
20260831071004 73 0 0.0 0.0 0.00 0.00 0.00 84 1017.4
20260831070004 73 0 0.0 0.0 0.00 0.00 0.00 84 1017.4
20260831065004 73 0 0.0 0.0 0.00 0.00 0.00 83 1017.2
20260831064004 73 0 0.0 0.0 0.00 0.00 0.00 83 1017.4
20260831063004 74 0 0.0 0.0 0.00 0.00 0.00 82 1017.6
20260831062004 75 0 0.0 0.0 0.00 0.00 0.00 80 1017.7
20260831061025 75 0 0.0 0.0 0.00 0.00 0.00 80 1017.7
20260831060004 74 261 0.0 2.0 0.00 0.00 0.00 82 1017.8
20260831055004 76 244 0.0 2.0 0.00 0.00 0.00 78 1018.0
20260831054004 76 144 0.0 3.0 0.00 0.00 0.00 78 1017.8
20260831053025 77 135 2.0 5.0 0.00 0.00 0.00 77 1017.9
20260831052025 76 131 1.0 6.0 0.00 0.00 0.00 78 1017.7
20260831051004 75 147 0.0 2.0 0.00 0.00 0.00 79 1018.0
20260831050004 74 141 0.0 2.0 0.00 0.00 0.00 84 1017.9
20260831045004 74 0 0.0 0.0 0.00 0.00 0.00 84 1018.1
20260831044004 74 0 0.0 0.0 0.00 0.00 0.00 82 1018.0
20260831043004 74 0 0.0 0.0 0.00 0.00 0.00 83 1017.9
20260831042004 75 0 0.0 0.0 0.00 0.00 0.00 81 1017.9
20260831041004 76 0 0.0 0.0 0.00 0.00 0.00 80 1017.8
20260831040026 76 0 0.0 0.0 0.00 0.00 0.00 79 1017.7
20260831035025 77 0 0.0 0.0 0.00 0.00 0.00 76 1017.7
20260831034004 77 133 0.0 2.0 0.00 0.00 0.00 76 1017.7
20260831033004 76 134 1.0 2.0 0.00 0.00 0.00 78 1017.6
20260831032004 75 223 0.0 1.0 0.00 0.00 0.00 82 1017.5
20260831031004 74 0 0.0 0.0 0.00 0.00 0.00 86 1017.7
20260831030025 74 0 0.0 0.0 0.00 0.00 0.00 88 1017.7
20260831025004 73 0 0.0 0.0 0.00 0.00 0.00 88 1017.9